TJS-20 (66142 NORAD) Tracking and Keplerian Element Data

This shows tracking and keplerian element data for the satellite.

Feedback or suggestion? Click here.




ElementValue
Catalog66142
NameTJS-20
Epoch Orbit53
Epoch Day353.9955861
Epoch Year2025
RAAN300.2776
Inclination5.8699
Eccentricity0.0003271
Argument of Perigee69.7262
Mean Anonmoly139.6497
Mean Motion1.00276255
Decay Rate5.2E-07
L11 66142U 25238A 25353.99558610 .00000052 00000+0 00000+0 0 9995
L22 66142 5.8699 300.2776 0003271 69.7262 139.6497 1.00276255 533



Live tracking and technical data element details for TJS-20 (NORAD 66142). TJS-20 can be tracked NOW for your location showing map with azimuth and elevation plus other details from your city location.







IsCatalogInMostPopularTable: catalog: 66142, numindb: 6
Update: records affected: 1



GetName: 66142 TJS-20

Hit Count: updated at: Tue, 21 Apr 2026 20:27:32 GMT